Weather reports worldwide

Advertisment
Bournemouth Airport, United Kingdom (3862): temperature & dewpoint: 17.05.2018 02:00:00 - 23.05.2018 02:00:00 (BST)Bournemouth Airport, United Kingdom (3862): temperature -20cm & temperature -100cm: 17.05.2018 02:00:00 - 23.05.2018 02:00:00 (BST)Bournemouth Airport, United Kingdom (3862): wind speed & gusts: 17.05.2018 02:00:00 - 23.05.2018 02:00:00 (BST)Bournemouth Airport, United Kingdom (3862): wind direction: 17.05.2018 02:00:00 - 23.05.2018 02:00:00 (BST)Bournemouth Airport, United Kingdom (3862): reduced air pressure: 17.05.2018 02:00:00 - 23.05.2018 02:00:00 (BST)Bournemouth Airport, United Kingdom (3862): visibility: 17.05.2018 02:00:00 - 23.05.2018 02:00:00 (BST)Bournemouth Airport, United Kingdom (3862): sunshine duration: 17.05.2018 02:00:00 - 23.05.2018 02:00:00 (BST)Bournemouth Airport, United Kingdom (3862): precipitation: 17.05.2018 02:00:00 - 23.05.2018 02:00:00 (BST)
Date & Time tt [°C] td [°C] tt -20cm [°C] tt -100cm [°C] ff [km/h] ff [kn] fx [km/h] fx [kn] dd ppp [hPa] vv [km] sd [min] rr [mm]
23.05.2018 02:00:00 11,5 8,0 - - 15 8 - - N 1020,8 20 0 0,0
23.05.2018 01:00:00 13,1 7,8 - - 8 4 - - N 1020,5 22 - 0,0
23.05.2018 00:00:00 14,3 8,5 - - 16 9 - - NNE 1020,1 23 0 0,0
22.05.2018 23:00:00 15,7 9,1 - - 15 8 - - NNE 1019,7 10 0 0,0
22.05.2018 22:00:00 16,9 10,2 - - 13 7 - - NNE 1019,2 10 0 0,0
22.05.2018 21:00:00 18,7 10,2 - - 15 8 - - NNE 1018,2 10 30 0,0
22.05.2018 20:00:00 20,4 10,9 - - 15 8 - - NNE 1017,6 10 30 0,0
22.05.2018 19:00:00 22,0 11,7 - - 18 10 - - NNE 1016,9 10 60 0,0
22.05.2018 18:00:00 22,1 12,0 - - 22 12 - - NNE 1016,6 10 54 0,0
22.05.2018 17:00:00 22,2 11,3 - - 24 13 - - N 1016,4 10 48 0,0
22.05.2018 16:00:00 22,1 11,4 - - 22 12 - - N 1016,4 10 54 0,0
22.05.2018 15:00:00 22,5 10,8 - - 22 12 - - N 1016,4 10 60 0,0
22.05.2018 14:00:00 22,2 11,5 - - 18 10 - - N 1016,4 10 60 0,0
22.05.2018 13:00:00 21,6 12,4 - - 22 12 - - N 1016,4 10 60 0,0
22.05.2018 12:00:00 19,9 10,8 - - 21 11 - - N 1016,4 10 42 0,0
22.05.2018 11:00:00 18,3 12,2 - - 18 10 - - N 1016,3 10 30 0,0
22.05.2018 10:00:00 16,8 11,4 15,7 12,7 18 10 - - N 1016,2 10 6 0,0
22.05.2018 09:00:00 15,4 10,3 - - 16 9 - - NNE 1016,2 10 54 0,0
22.05.2018 08:00:00 13,7 10,5 - - 16 9 - - N 1015,9 8 60 0,0
22.05.2018 07:00:00 12,2 10,5 - - 16 9 - - NNE 1015,5 8 30 0,0
22.05.2018 06:00:00 10,2 9,8 - - 11 6 - - N 1015,4 9 0 0,0
22.05.2018 05:00:00 10,2 9,9 - - 9 5 - - N 1014,9 4,6 0 0,0
22.05.2018 04:00:00 9,5 9,3 - - 5 3 - - N 1014,8 5 0 0,0
22.05.2018 03:00:00 8,5 8,1 - - 9 5 - - WNW 1014,8 4,7 0 0,0
22.05.2018 02:00:00 9,0 8,7 - - 8 4 - - WNW 1014,8 5 0 0,0
22.05.2018 01:00:00 9,9 9,5 - - 4 2 - - WNW 1014,7 5 - 0,0
22.05.2018 00:00:00 11,1 10,7 - - 4 2 - - WNW 1014,9 6 0 0,0
21.05.2018 23:00:00 11,5 11,0 - - 5 3 - - NW 1015,0 3,1 0 0,0
21.05.2018 22:00:00 12,7 11,8 - - 5 3 - - NNW 1015,0 10 0 0,0
21.05.2018 21:00:00 14,2 12,5 - - 5 3 - - NW 1014,5 10 0 0,0
21.05.2018 20:00:00 15,6 12,8 - - 11 6 - - NW 1014,7 10 0 0,0
21.05.2018 19:00:00 16,5 13,9 - - 9 5 - - W 1014,9 10 18 0,0
21.05.2018 18:00:00 15,3 13,5 - - 11 6 - - SSE 1014,4 10 0 10,2
21.05.2018 17:00:00 19,5 10,5 - - 15 8 - - S 1014,0 10 30 0,0
21.05.2018 16:00:00 20,2 10,6 - - 13 7 - - SSE 1014,2 10 30 0,0
21.05.2018 15:00:00 22,0 11,4 - - 13 7 - - SSE 1014,6 10 36 0,0
21.05.2018 14:00:00 21,7 10,9 - - 18 10 - - SSE 1014,9 10 36 0,0
21.05.2018 13:00:00 21,9 10,2 - - 9 5 - - E 1015,1 10 42 0,0
21.05.2018 12:00:00 21,6 10,8 - - 13 7 - - NE 1015,5 10 60 0,0
21.05.2018 11:00:00 20,0 11,7 - - 11 6 - - ENE 1015,8 9 60 0,0
21.05.2018 10:00:00 18,0 10,7 15,2 12,7 13 7 - - NNE 1016,3 9 60 0,0
21.05.2018 09:00:00 15,0 10,4 - - 13 7 - - N 1016,6 8 60 0,0
21.05.2018 08:00:00 11,6 9,4 - - 9 5 - - N 1017,0 7 60 0,0
21.05.2018 07:00:00 8,6 8,4 - - 5 3 - - N 1017,1 6 36 0,0
21.05.2018 06:00:00 5,1 4,7 - - 8 4 - - NNW 1017,1 5 0 0,0
21.05.2018 05:00:00 5,4 5,1 - - 4 2 - - NNW 1017,1 0,2 0 0,0
21.05.2018 04:00:00 5,6 5,2 - - 5 3 - - NNW 1017,7 3,5 0 0,0
21.05.2018 03:00:00 5,6 5,0 - - 2 1 - - NNW 1018,0 6 0 0,0
21.05.2018 02:00:00 6,1 5,2 - - 5 3 - - NW 1018,5 5 0 0,0
21.05.2018 01:00:00 7,0 6,1 - - 2 1 - - NW 1019,0 7 - 0,0
21.05.2018 00:00:00 8,0 6,9 - - 4 2 - - NNW 1019,2 6 0 0,0
20.05.2018 23:00:00 9,4 7,9 - - 4 2 - - NE 1019,4 8 0 0,0
20.05.2018 22:00:00 9,6 7,3 - - 0 0 - - N 1019,4 9 0 0,0
20.05.2018 21:00:00 13,0 7,9 - - 0 0 - - N 1019,2 10 18 0,0
20.05.2018 20:00:00 14,3 8,9 - - 5 3 - - S 1019,2 10 60 0,0
20.05.2018 19:00:00 14,6 10,2 - - 9 5 - - S 1019,4 10 60 0,0
20.05.2018 18:00:00 15,6 10,7 - - 11 6 - - S 1019,7 9 60 0,0
20.05.2018 17:00:00 15,6 11,2 - - 13 7 - - S 1020,0 9 60 0,0
20.05.2018 16:00:00 15,1 10,5 - - 13 7 - - S 1020,7 10 60 0,0
20.05.2018 15:00:00 15,4 10,8 - - 15 8 - - S 1021,4 10 60 0,0
20.05.2018 14:00:00 15,7 10,6 - - 15 8 - - S 1022,0 10 60 0,0
20.05.2018 13:00:00 15,9 10,8 - - 15 8 - - S 1022,5 10 60 0,0
20.05.2018 12:00:00 15,2 10,9 - - 13 7 - - SSE 1022,8 9 60 0,0
20.05.2018 11:00:00 15,0 10,2 - - 8 4 - - - 1023,0 9 54 0,0
20.05.2018 10:00:00 12,8 9,9 15,2 12,7 5 3 - - - 1023,4 7 12 0,0
20.05.2018 09:00:00 11,3 11,1 - - 8 4 - - SE 1023,3 4,0 0 0,0
20.05.2018 08:00:00 8,5 8,4 - - 5 3 - - SSE 1023,4 0,3 12 0,0
20.05.2018 07:00:00 6,7 6,6 - - 0 0 - - N 1023,3 1,5 36 0,0
20.05.2018 06:00:00 4,4 4,2 - - 4 2 - - NNW 1023,1 0,2 0 0,0
20.05.2018 05:00:00 4,4 4,1 - - 5 3 - - N 1022,8 0,1 0 0,0
20.05.2018 04:00:00 7,2 7,1 - - 4 2 - - E 1022,8 0,2 0 0,0
20.05.2018 03:00:00 6,5 6,1 - - 5 3 - - NE 1023,1 0,9 0 0,0
20.05.2018 02:00:00 7,0 6,2 - - 2 1 - - SSE 1023,1 3,5 0 0,0
20.05.2018 01:00:00 7,7 6,8 - - 4 2 - - SE 1023,3 11 - 0,0
20.05.2018 00:00:00 7,3 6,2 - - 2 1 - - E 1023,2 10 0 0,0
19.05.2018 23:00:00 8,1 6,2 - - 4 2 - - WSW 1023,2 10 0 0,0
19.05.2018 22:00:00 11,0 8,0 - - 4 2 - - WSW 1023,1 10 0 0,0
19.05.2018 21:00:00 13,5 7,0 - - 8 4 - - WSW 1022,6 10 36 0,0
19.05.2018 20:00:00 14,9 8,2 - - 9 5 - - SSE 1022,4 10 60 0,0
19.05.2018 19:00:00 16,4 7,0 - - 13 7 - - SSE 1022,4 10 60 0,0
19.05.2018 18:00:00 17,0 7,5 - - 11 6 - - S 1022,9 10 60 0,0
19.05.2018 17:00:00 17,1 7,0 - - 13 7 - - S 1023,1 10 60 0,0
19.05.2018 16:00:00 16,3 7,8 - - 16 9 - - S 1023,6 10 60 0,0
19.05.2018 15:00:00 15,7 9,9 - - 16 9 - - S 1023,8 10 60 0,0
19.05.2018 14:00:00 14,6 9,6 - - 18 10 - - S 1024,1 10 60 0,0
19.05.2018 13:00:00 16,2 10,0 - - 16 9 - - S 1024,2 10 60 0,0
19.05.2018 12:00:00 16,9 6,1 - - 18 10 - - SSE 1024,3 10 48 0,0
19.05.2018 11:00:00 17,1 9,3 - - 11 6 - - SSE 1024,3 10 60 0,0
19.05.2018 10:00:00 16,0 10,7 14,7 12,5 4 2 - - - 1024,6 10 60 0,0
19.05.2018 09:00:00 12,6 12,0 - - 2 1 - - - 1024,7 10 60 0,0
19.05.2018 08:00:00 8,2 8,1 - - 2 1 - - - 1024,6 0,5 18 0,0
19.05.2018 07:00:00 5,8 5,7 - - 4 2 - - NNW 1024,3 0,8 0 0,0
19.05.2018 06:00:00 4,3 4,1 - - 4 2 - - N 1024,2 1,0 0 0,0
19.05.2018 05:00:00 4,7 4,4 - - 4 2 - - N 1024,0 0,1 0 0,0
19.05.2018 04:00:00 4,9 4,5 - - 2 1 - - WNW 1024,1 0,1 0 0,0
19.05.2018 03:00:00 5,2 4,6 - - 5 3 - - N 1024,2 8 0 0,0
19.05.2018 02:00:00 5,7 4,9 - - 2 1 - - N 1024,3 8 0 0,0
19.05.2018 01:00:00 6,3 5,4 - - 4 2 - - NE 1024,3 10 - 0,0
19.05.2018 00:00:00 7,9 6,7 - - 2 1 - - WNW 1024,4 11 0 0,0
18.05.2018 23:00:00 8,9 7,9 - - 4 2 - - NE 1024,4 10 0 0,0
18.05.2018 22:00:00 9,8 8,3 - - 4 2 - - NE 1024,4 10 0 0,0
18.05.2018 21:00:00 12,7 9,3 - - 4 2 - - SSE 1024,1 10 24 0,0
18.05.2018 20:00:00 14,7 9,1 - - 8 4 - - WSW 1024,1 10 60 0,0
18.05.2018 19:00:00 15,7 9,2 - - 11 6 - - WSW 1024,2 10 24 0,0
18.05.2018 18:00:00 15,1 9,5 - - 11 6 - - S 1024,2 10 6 0,0
18.05.2018 17:00:00 15,1 9,0 - - 15 8 - - S 1024,3 10 18 0,0
18.05.2018 16:00:00 14,9 7,5 - - 15 8 - - S 1024,6 10 54 0,0
18.05.2018 15:00:00 14,7 8,0 - - 15 8 - - S 1024,9 10 60 0,0
18.05.2018 14:00:00 14,7 7,6 - - 18 10 - - S 1025,1 10 54 0,0
18.05.2018 13:00:00 14,9 8,0 - - 16 9 - - S 1025,3 10 60 0,0
18.05.2018 12:00:00 15,5 6,6 - - 5 3 - - ENE 1025,4 10 60 0,0
18.05.2018 11:00:00 15,0 6,5 - - 8 4 - - - 1025,9 10 54 0,0
18.05.2018 10:00:00 13,1 7,7 14,9 12,5 8 4 - - NW 1026,3 10 36 0,0
18.05.2018 09:00:00 10,6 7,0 - - 5 3 - - W 1026,7 10 36 0,0
18.05.2018 08:00:00 8,6 7,5 - - 4 2 - - N 1026,6 10 0 0,0
18.05.2018 07:00:00 5,7 5,3 - - 2 1 - - NNW 1026,5 10 0 0,0
18.05.2018 06:00:00 3,3 2,8 - - 5 3 - - NNW 1026,3 10 0 0,0
18.05.2018 05:00:00 2,0 1,2 - - 5 3 - - NNW 1026,3 9 0 0,0
18.05.2018 04:00:00 2,6 1,6 - - 4 2 - - NNW 1026,2 11 0 0,0
18.05.2018 03:00:00 4,0 3,1 - - 2 1 - - NNW 1026,2 17 0 0,0
18.05.2018 02:00:00 4,9 4,2 - - 4 2 - - NNE 1026,4 15 0 0,0
18.05.2018 01:00:00 4,6 3,4 - - 5 3 - - N 1026,6 13 - 0,0
18.05.2018 00:00:00 6,2 4,8 - - 8 4 - - E 1026,4 15 0 0,0
17.05.2018 23:00:00 6,0 3,6 - - 8 4 - - ESE 1026,5 16 0 0,0
17.05.2018 22:00:00 7,0 3,8 - - 5 3 - - ESE 1026,2 10 0 0,0
17.05.2018 21:00:00 11,2 5,2 - - 8 4 - - S 1025,7 10 18 0,0
17.05.2018 20:00:00 12,4 5,4 - - 9 5 - - S 1025,8 10 54 0,0
17.05.2018 19:00:00 13,0 5,8 - - 11 6 - - S 1025,6 10 30 0,0
17.05.2018 18:00:00 13,8 6,0 - - 11 6 - - S 1025,6 10 54 0,0
17.05.2018 17:00:00 14,6 6,4 - - 13 7 - - S 1025,5 10 60 0,0
17.05.2018 16:00:00 16,4 7,0 - - 13 7 - - S 1025,6 10 60 0,0
17.05.2018 15:00:00 15,6 5,9 - - 16 9 - - - 1026,0 10 60 0,0
17.05.2018 14:00:00 17,2 2,9 - - 15 8 46 25 NE 1026,4 10 60 0,0
17.05.2018 13:00:00 16,4 2,2 - - 13 7 - - ENE 1026,7 10 60 0,0
17.05.2018 12:00:00 15,2 3,4 - - 15 8 - - NE 1027,0 10 60 0,0
17.05.2018 11:00:00 14,3 4,2 - - 16 9 - - NE 1027,3 10 60 0,0
17.05.2018 10:00:00 12,1 4,4 14,7 12,4 15 8 - - NE 1027,4 10 60 0,0
17.05.2018 09:00:00 10,4 5,0 - - 21 11 - - NE 1027,6 18 60 0,0
17.05.2018 08:00:00 8,9 5,2 - - 16 9 - - NE 1027,4 10 60 0,0
17.05.2018 07:00:00 7,3 5,0 - - 15 8 - - NNE 1027,3 10 54 0,0
17.05.2018 06:00:00 5,9 4,3 - - 11 6 - - NNE 1027,2 10 0 0,0
17.05.2018 05:00:00 5,7 3,8 - - 11 6 - - N 1027,1 15 0 0,0
17.05.2018 04:00:00 6,5 4,0 - - 11 6 - - NNE 1027,2 15 0 0,0
17.05.2018 03:00:00 7,4 4,2 - - 15 8 - - NNE 1027,4 15 0 0,0
17.05.2018 02:00:00 8,3 4,4 - - 16 9 - - NE 1027,6 16 0 0,0

tt = temperature
td = dewpoint
tt -20cm = temperature -20cm
tt -100cm = temperature -100cm
ff = wind speed
fx = gusts
dd = wind direction
ppp = reduced air pressure
vv = visibility
sd = sunshine duration
rr = precipitation

Next stations